Погода в Новом Ильинском

Россия / Курганская область     55°14′52″N   68°03′22″E
темп.,
°C
ветер,
м/с
пор.,
м/с
влажн.,
%
обл.,
%
осадки,
мм/ч
давл.,
гПа
погр.,
м
7 мая, пт
пт723:00+9зсз49440 0.0 1014218
02:00+7зсз37510 0.0 1016145
05:00+5зсз39580 0.0 1018192
08:00+10сз69410 0.0 1019913
11:00+14зсз56305 0.0 10201274
14:00+18зсз56265 0.0 10201529
17:00+19зсз45240 0.0 10201524
20:00+15з22360 0.0 102011
8 мая, сб
сб823:00+12юз11425 0.0 102110
02:00+11юз22465 0.0 102112
05:00+10ююз22502 0.0 102110
08:00+15ююз233764 0.0 1021307
11:00+19ю332767 0.0 10201468
14:00+21ю3324100 0.0 10182209
17:00+21ююв2224100 0.0 10172333
20:00+17вюв333699 0.0 101743
9 мая, вс
вс923:00+15в333997 0.0 101624
02:00+14в3440100 0.0 101659
05:00+13св4945100 0.0 1016184
08:00+15всв51147100 0.0 1016305
11:00+21в81028100 0.0 10151630
14:00+23в91126100 0.0 10143101
17:00+19вюв71237100 0.0 10151332
20:00+18всв71344100 0.0 1016935
10 мая, пн
пн1023:00+16всв7144781 0.0 1016787
02:00+14всв71450100 0.0 1017515
05:00+12всв61251100 0.0 1019439
08:00+14всв7104182 0.0 1020898
11:00+18св8113218 0.0 10201988
14:00+20св8102650 0.0 10202908
17:00+19св782846 0.0 10202657
20:00+15св34424 0.0 102164
11 мая, вт
вт1123:00+11вюв23515 0.0 102225
02:00+10ю11585 0.0 102210
05:00+9зюз11627 0.0 102210
08:00+15зюз22435 0.0 1022349
11:00+19сз343153 0.0 10222464
14:00+21сз35265 0.0 10202630
17:00+22с562333 0.0 10202665
20:00+17св3439100 0.0 102146